{"data":{"norad_id":64229,"intl_designator":"2025-117AC","name":"STARLINK-34241","alt_names":[],"object_type":"PAYLOAD","status":"ACTIVE","operator":null,"country":"US","launch_date":"2025-05-31","launch_site_code":"AFWTR","launch_vehicle":null,"mission":null,"orbit_class":"UNKNOWN","rcs_meters":null,"size_class":null,"mass_kg":null,"dimensions":null,"purposes":["comms"],"wikipedia_slug":null,"has_3d_model":false,"image_url":null,"decayed_at":null,"tle_current":{"epoch":"2026-05-25T02:32:11.995296Z","epoch_age_seconds":56102,"freshness":"FRESH","line1":"1 64229U 25117AC  26145.10569439  .00018693  00000+0  57806-3 0  9999","line2":"2 64229  53.1608  44.8393 0001049  85.7519 274.3603 15.33561346 56258","mean_motion":15.33561346,"eccentricity":0.0001049,"inclination_deg":53.1608,"raan_deg":44.8393,"arg_perigee_deg":85.7519,"mean_anomaly_deg":274.3603,"bstar":0.00057806,"rev_number":5625,"period_min":93.899080317586,"perigee_km":464.47916678389,"apogee_km":465.91489826391,"semimajor_km":6843.3340325239,"source":"CELESTRAK","updated_at":"2026-05-25T13:38:20.349908Z"}}}